Flag for Australia Weather past 2 weeks in Perth, Western Australia, Australia

Now
79 °F

Passing clouds.


Feels Like: 80 °F
Forecast: 65 / 87 °F
Wind: 6 mph from Southeast

Location: Belmont Perth Airport

Current Time: Dec 22, 2014 at 11:11:27 AM

Latest Report: Dec 22, 2014 at 10:00 AM


Visibility: N/A

Pressure: 30.01 "Hg

Humidity: 48%

Dew point: 57 °F

Location of PerthLocation

Historic Weather in Perth — Graph

°F

Perth temperature yesterday

Maximum temperature yesterday: 84 °F (at 1:00 PM)
Minimum temperature yesterday: 61 °F (at 4:00 AM)
Average temperature yesterday: 73 °F

Past Weeks' High & Low Weather Summary

 TemperatureHumidityPressure
High100 °F (Dec 19, 12:30 PM)94% (Dec 16, 4:00 AM)30.18 "Hg (Dec 16, 4:00 AM)
Low52 °F (Dec 14, 3:00 AM)13% (Dec 18, 2:30 PM)29.68 "Hg (Dec 19, 4:00 PM)
Average71 °F52%29.92 "Hg
* Reported Dec 7 9:00 AM — Dec 22 9:30 AM, Perth, Weather by CustomWeather, © 2014

Note: Actual official high and low records may vary slightly from our data, if they occured in-between our weather recording intervals... More about our weather records

Advertising

Perth weather history for previous 24 hours

 ConditionsComfort  
Time TempWeatherWind HumidityBarometerVisibility
9:30 AM
Dec 22
77 °FPassing clouds.7 mph51%30.04 "HgN/A
9:00 AM75 °FPassing clouds.9 mph54%30.04 "HgN/A
8:00 AM70 °FPassing clouds.12 mph60%30.04 "HgN/A
7:30 AM68 °FPassing clouds.10 mph64%30.04 "HgN/A
7:00 AM66 °FPassing clouds.10 mph68%30.04 "HgN/A
6:30 AM64 °FPassing clouds.9 mph73%30.04 "HgN/A
6:00 AM63 °FPassing clouds.14 mph77%30.01 "HgN/A
5:00 AM61 °FSunny.12 mph77%30.01 "Hg10 mi
4:30 AM63 °FSunny.9 mph73%29.98 "Hg10 mi
4:00 AM63 °FClear.10 mph73%29.98 "Hg10 mi
3:30 AM63 °FClear.15 mph73%29.98 "Hg10 mi
3:00 AM64 °FClear.18 mph68%29.98 "Hg10 mi
2:30 AM64 °FClear.20 mph68%29.98 "Hg10 mi
2:00 AM66 °FClear.21 mph64%29.98 "Hg10 mi
1:30 AM66 °FClear.20 mph64%29.98 "Hg10 mi
1:00 AM68 °FClear.13 mph60%29.98 "Hg10 mi
12:30 AM70 °FClear.13 mph57%29.98 "Hg10 mi
12:00 AM70 °FClear.9 mph57%29.98 "Hg10 mi
11:30 PM
Dec 21
70 °FClear.10 mph53%30.01 "Hg10 mi
11:00 PM68 °FClear.9 mph60%30.01 "Hg10 mi
10:30 PM68 °FClear.9 mph64%30.01 "Hg10 mi
10:00 PM70 °FClear.10 mph57%30.01 "Hg10 mi
9:30 PM72 °FClear.15 mph53%30.01 "Hg10 mi
9:00 PM73 °FClear.17 mph50%29.98 "Hg10 mi
8:30 PM73 °FClear.16 mph50%29.98 "Hg10 mi
8:00 PM75 °FClear.17 mph50%29.98 "Hg10 mi
7:00 PM77 °FClear.17 mph47%29.95 "Hg10 mi
6:30 PM79 °FClear.20 mph42%29.95 "Hg10 mi
6:00 PM81 °FSunny.20 mph39%29.92 "Hg10 mi
5:30 PM81 °FSunny.21 mph39%29.92 "Hg10 mi
5:00 PM81 °FSunny.18 mph45%29.92 "Hg10 mi
4:30 PM82 °FSunny.18 mph40%29.92 "Hg10 mi
4:00 PM82 °FSunny.20 mph37%29.92 "Hg10 mi
3:30 PM82 °FSunny.18 mph40%29.92 "Hg10 mi
3:00 PM82 °FSunny.15 mph40%29.95 "Hg10 mi
2:30 PM81 °FSunny.18 mph42%29.95 "Hg10 mi
2:00 PM84 °FSunny.18 mph35%29.95 "Hg10 mi
1:30 PM84 °FSunny.13 mph29%29.98 "Hg10 mi
1:00 PM84 °FSunny.7 mph29%29.98 "Hg10 mi
12:30 PM82 °FSunny.14 mph30%29.98 "Hg10 mi
12:00 PM81 °FSunny.13 mph34%29.98 "Hg10 mi
11:30 AM82 °FSunny.6 mph30%30.01 "Hg10 mi
11:00 AM79 °FPassing clouds.7 mph32%30.01 "HgN/A
Weather by CustomWeather, © 2014

See weather overviewHow to use our weather pages